Location: Newark
(6.9000°N, 10.0000°E)
Time: 22:00:48
(UTC+00:00)

Envisat - Pass Details

Date: 24 October 2019
Orbit: 764 x 766 km, 98.1° (Epoch: 17 November)

Event Time Altitude Azimuth Distance (km) Brightness Sun altitude
Rises 18:09:32 0° 180° (S) 3,223 6.4 -17.3°
Reaches altitude 10° 18:11:55 10° 186° (S) 2,296 5.7 -17.9°
Maximum altitude 18:16:45 46° 259° (WSW) 1,023 4.1 -19.1°
Drops below altitude 10° 18:21:35 10° 331° (NNW) 2,292 5.7 -20.3°
Sets 18:23:58 0° 337° (NNW) 3,217 6.4 -20.9°
